Location: Unspecified
(35.6961°N, 0.0000°E)
Time: 03:10:46
(UTC+00:00)

Explorer 11/Cluster Stage 4 - Pass Details

Date: 31 May 2019
Orbit: 467 x 1260 km, 28.8° (Epoch: 19 June)

Event Time Altitude Azimuth Distance (km) Brightness Sun altitude
Rises 00:19:09 0° 245° (WSW) 4,110 - -32.2°
Reaches altitude 10° 00:22:21 10° 239° (WSW) 3,071 - -32.2°
Maximum altitude 00:29:25 42° 172° (S) 1,438 - -32.0°
Drops below altitude 10° 00:35:21 10° 103° (ESE) 2,575 - -31.8°
Exits shadow 00:36:29 - 99° (E) 2,942 9.5 -31.7°
Sets 00:37:49 0° 96° (E) 3,391 9.9 -31.7°
